Location: Fontevrault
(47.1823°N, 0.0493°E)
Time: 00:35:26
(UTC+00:00)

NOSS 0 Rocket - Visible Passes

Search period start: 24 October 2021 00:00
Search period end: 03 November 2021 00:00
Orbit: 937 x 952 km, 70.0° (Epoch: 23 October)

Date Brightness Start Highest point End Pass type
(mag) Time Alt. Az. Time Alt. Az. Time Alt. Az.
24 Oct 5.9 04:07:25 10° NNW 04:12:21 24° NE 04:17:14 10° E visible
24 Oct 4.0 05:53:22 10° NNW 05:59:33 83° WSW 06:05:42 10° SSE visible
25 Oct 6.6 02:38:40 10° N 02:40:24 11° NNE 02:42:08 10° NE visible
25 Oct 5.4 04:23:25 10° NNW 04:28:58 34° NE 04:34:30 10° ESE visible
26 Oct 6.5 02:54:08 10° N 02:57:24 14° NNE 03:00:39 10° ENE visible
26 Oct 4.8 04:39:30 10° NNW 04:45:29 49° NE 04:51:25 10° SE visible
27 Oct 6.2 03:09:57 10° N 03:14:16 19° NE 03:18:33 10° E visible
27 Oct 4.1 04:55:40 10° NNW 05:01:51 73° ENE 05:08:00 10° SE visible
27 Oct 6.1 20:09:24 10° SSW 20:10:08 14° SSW 20:10:08 14° SSW visible
28 Oct 5.8 03:25:54 10° NNW 03:31:00 26° NE 03:36:06 10° E visible
28 Oct 3.9 05:11:56 10° NNW 05:18:05 75° WSW 05:24:13 10° SSE visible
28 Oct 5.2 18:40:45 10° SSE 18:43:33 22° SE 18:43:33 22° SE visible
28 Oct 5.8 20:25:51 10° SW 20:27:39 20° SW 20:27:39 20° SW visible
29 Oct 6.6 01:58:12 11° NNE 01:59:10 12° NNE 02:01:23 10° NE visible
29 Oct 5.2 03:42:15 11° NNW 03:47:37 37° NE 03:53:16 10° ESE visible
29 Oct 4.2 05:28:21 10° NW 05:34:13 48° WSW 05:40:04 10° S visible
29 Oct 4.3 18:56:04 10° S 19:00:58 41° SE 19:00:58 41° SE visible
29 Oct 5.8 20:42:36 10° WSW 20:45:05 23° WSW 20:45:05 23° WSW visible
30 Oct 6.3 02:14:59 15° NNE 02:16:08 15° NNE 02:19:41 10° ENE visible
30 Oct 4.5 03:59:03 15° NNW 04:04:04 54° NE 04:10:05 10° SE visible
30 Oct 4.7 05:44:58 10° NW 05:50:13 30° WSW 05:55:27 10° SSW visible
30 Oct 5.6 17:30:46 10° ESE 17:32:41 11° E 17:34:12 10° E visible
30 Oct 3.8 19:11:50 10° SSW 19:17:57 69° ESE 19:18:16 68° E visible
30 Oct 6.0 20:59:43 10° WSW 21:02:22 21° W 21:02:22 21° W visible
31 Oct 6.0 02:31:58 20° NNE 02:32:58 21° NE 02:37:29 10° E visible
31 Oct 3.9 04:16:03 21° NNW 04:20:25 81° ENE 04:26:35 10° SSE visible
31 Oct 5.2 06:02:01 10° WNW 06:06:06 19° W 06:10:12 10° SW visible
31 Oct 5.1 17:44:12 10° SE 17:48:27 20° E 17:51:19 14° ENE visible
31 Oct 3.9 19:27:59 10° SSW 19:34:11 79° WNW 19:35:23 59° N visible
31 Oct 6.3 21:17:10 10° W 21:19:28 17° WNW 21:19:28 17° WNW visible
01 Nov 5.6 02:49:09 28° NE 02:49:40 29° NE 02:54:55 10° ESE visible
01 Nov 3.8 04:33:14 27° NW 04:36:37 67° WSW 04:42:42 10° SSE visible
01 Nov 4.6 17:59:00 10° SSE 18:04:21 31° ESE 18:08:15 16° NE visible
01 Nov 4.5 19:44:30 10° SW 19:50:32 53° NW 19:52:19 40° N visible
01 Nov 6.6 21:35:01 10° WNW 21:36:23 13° NW 21:36:23 13° NW visible
02 Nov 5.0 03:06:30 40° ENE 03:06:30 40° ENE 03:12:00 10° ESE visible
02 Nov 4.2 04:50:36 32° WNW 04:52:43 42° WSW 04:58:26 10° S visible
02 Nov 4.1 18:14:26 10° S 18:20:21 50° ESE 18:24:59 17° NE visible
02 Nov 5.2 20:01:22 10° WSW 20:07:01 36° NW 20:09:02 29° NNW visible
